User: anonymous   Login
Location: Lower Kingswood
(51.2667°N, 0.2167°W)
Time: 01:35:34
(UTC+00:00)
Language:

Cosmos 1680 Rocket - Orbit

View from above orbital plane
View from above orbital plane
View from above satellite
View from above satellite

Ground track
Ground track

The orbit data is extracted from the following two-line orbital elements,

1 16012U 85079B   24062.82202340  .00000293  00000-0  10777-3 0  9993
2 16012  74.0604 319.5260 0015281 326.5909  33.4279 14.36924924 15660
Epoch (UTC): 02 March 2024 19:43:42
Eccentricity: 0.0015281
inclination: 74.0604°
perigee height: 758 km
apogee height: 779 km
right ascension of ascending node: 319.5260°
argument of perigee: 326.5909°
revolutions per day: 14.36924924
mean anomaly at epoch: 33.4279°
orbit number at epoch: 1566

The dashed part of the orbit path shows where the satellite is in the earth's shadow,  

DLR